Weather History for Arbor Vitae, WI

Change the Weather History Date:

Saturday, April 26, 2014

  Actual Average Record
Temperature  
Mean Temperature 41 °F -  
Max Temperature 51 °F 61 °F 84 °F (1990)
Min Temperature 31 °F 31 °F 15 °F (1926)
Degree Days  
Heating Degree Days 24    
Moisture  
Dew Point 29 °F    
Average Humidity 69    
Maximum Humidity 89    
Minimum Humidity 39    
Precipitation  
Precipitation 0.00 in - - ()
Sea Level Pressure  
Sea Level Pressure 30.02 in    
Wind  
Wind Speed 8 mph (NE)    
Max Wind Speed 13 mph    
Max Gust Speed 20 mph    
Visibility 10 miles    
Events      
Averages and records for this station are not official NWS values.
T = Trace of Precipitation, MM = Missing Value Source: NWS Daily Summary

Daily Weather History Graph

Daily Weather History Graph

Search for Another Location

Airport:

Trip Planner

Search our weather history database for the weather conditions in past years. The results will help you decide how hot, cold, wet, or windy it might be!

Date:

Astronomy

Apr. 26, 2014 Rise Set
Actual Time 5:53 AM CDT 8:00 PM CDT
Civil Twilight 5:21 AM CDT 8:32 PM CDT
Nautical Twilight 4:41 AM CDT 9:13 PM CDT
Astronomical Twilight 3:57 AM CDT 9:57 PM CDT
Moon 4:27 AM CDT (4/26) 5:20 PM CDT (4/26)
Length of Visible Light 15h 11m
Length of Day
14h 06m
Waning Crescent, 8% of the Moon is Illuminated
Apr 26
Waning Crescent
Apr 29
New
May 6
First Quarter
May 14
Full
May 21
Last Quarter

Hourly Weather History & Observations

Time (CDT) Temp. Windchill Dew Point Humidity Pressure Visibility Wind Dir Wind Speed Gust Speed Precip Events Conditions
12:15 AM 34.0 °F 26.6 °F 30.0 °F 85% 29.90 in 10.0 mi North 9.2 mph 17.3 mph N/A   Overcast
12:35 AM 33.8 °F 27.0 °F 30.2 °F 87% 29.90 in 10.0 mi North 8.1 mph - N/A   Mostly Cloudy
12:55 AM 33.6 °F 25.0 °F 30.4 °F 88% 29.91 in 10.0 mi North 11.5 mph 18.4 mph N/A   Overcast
1:15 AM 32.0 °F 24.2 °F 28.4 °F 87% 29.91 in 10.0 mi North 9.2 mph - N/A   Scattered Clouds
1:35 AM 32.9 °F 24.7 °F 29.8 °F 88% 29.91 in 10.0 mi North 10.4 mph - N/A   Mostly Cloudy
1:55 AM 32.9 °F 25.3 °F 29.7 °F 88% 29.90 in 10.0 mi North 9.2 mph 17.3 mph N/A   Mostly Cloudy
2:15 AM 32.9 °F 24.1 °F 29.8 °F 88% 29.91 in 10.0 mi North 11.5 mph - N/A   Mostly Cloudy
2:35 AM 34.0 °F 26.6 °F 30.9 °F 89% 29.91 in 10.0 mi North 9.2 mph 19.6 mph N/A   Overcast
2:55 AM 34.0 °F 26.6 °F 30.2 °F 86% 29.91 in 10.0 mi North 9.2 mph - N/A   Overcast
3:15 AM 34.0 °F 26.0 °F 30.2 °F 86% 29.91 in 10.0 mi North 10.4 mph - N/A   Overcast
3:35 AM 34.0 °F 26.6 °F 30.2 °F 86% 29.92 in 10.0 mi North 9.2 mph 16.1 mph N/A   Overcast
3:55 AM 34.0 °F 26.0 °F 30.6 °F 87% 29.93 in 10.0 mi North 10.4 mph - N/A   Overcast
4:15 AM 33.6 °F 27.5 °F 30.4 °F 88% 29.93 in 10.0 mi North 6.9 mph - N/A   Overcast
4:35 AM 34.0 °F 26.0 °F 31.1 °F 89% 29.93 in 10.0 mi North 10.4 mph - N/A   Overcast
4:55 AM 34.0 °F 28.0 °F 30.9 °F 89% 29.94 in 10.0 mi North 6.9 mph - N/A   Overcast
5:15 AM 34.0 °F 25.0 °F 30.7 °F 88% 29.95 in 10.0 mi North 12.7 mph - N/A   Overcast
5:35 AM 34.0 °F 26.0 °F 30.2 °F 86% 29.96 in 10.0 mi North 10.4 mph 16.1 mph N/A   Overcast
5:55 AM 32.0 °F 25.6 °F 28.4 °F 87% 29.96 in 10.0 mi North 6.9 mph - N/A   Mostly Cloudy
6:15 AM 31.8 °F 27.3 °F 28.4 °F 87% 29.98 in 10.0 mi North 4.6 mph - N/A   Scattered Clouds
6:35 AM 31.8 °F 26.2 °F 28.9 °F 89% 29.98 in 10.0 mi North 5.8 mph - N/A   Mostly Cloudy
6:55 AM 32.9 °F 26.7 °F 29.8 °F 88% 29.99 in 10.0 mi North 6.9 mph - N/A   Overcast
7:15 AM 34.0 °F 26.0 °F 30.9 °F 89% 30.00 in 10.0 mi NNE 10.4 mph - N/A   Overcast
7:35 AM 34.0 °F 26.6 °F 30.2 °F 86% 30.00 in 10.0 mi NNE 9.2 mph - N/A   Overcast
7:55 AM 34.0 °F 28.8 °F 31.1 °F 89% 30.02 in 10.0 mi North 5.8 mph 16.1 mph N/A   Overcast
8:15 AM 34.0 °F 27.2 °F 30.6 °F 87% 30.03 in 10.0 mi North 8.1 mph - N/A   Overcast
8:35 AM 36.5 °F 30.3 °F 32.9 °F 87% 30.04 in 7.0 mi NE 8.1 mph - N/A   Overcast
8:55 AM 36.5 °F 32.7 °F 32.9 °F 87% 30.04 in 5.0 mi NNE 4.6 mph - N/A   Overcast
9:15 AM 36.5 °F 30.3 °F 32.7 °F 86% 30.04 in 10.0 mi North 8.1 mph - N/A   Overcast
9:35 AM 36.5 °F 30.3 °F 32.5 °F 86% 30.05 in 5.0 mi NNE 8.1 mph - N/A   Overcast
9:55 AM 39.2 °F 35.9 °F 36.0 °F 88% 30.05 in 7.0 mi NNE 4.6 mph - N/A   Unknown
10:15 AM 38.8 °F 32.1 °F 35.1 °F 86% 30.05 in 10.0 mi NE 10.4 mph - N/A   Overcast
10:35 AM 39.2 °F 34.2 °F 32.7 °F 78% 30.06 in 10.0 mi NNE 6.9 mph - N/A   Overcast
10:55 AM 39.2 °F 35.9 °F 32.9 °F 78% 30.06 in 10.0 mi NE 4.6 mph - N/A   Overcast
11:15 AM 41.0 °F 39.0 °F 36.3 °F 83% 30.06 in 10.0 mi North 3.5 mph - N/A   Mostly Cloudy
11:35 AM 42.4 °F 38.8 °F 37.0 °F 81% 30.06 in 10.0 mi NE 5.8 mph - N/A   Overcast
11:55 AM 41.5 °F 39.6 °F 32.9 °F 71% 30.07 in 10.0 mi North 3.5 mph - N/A   Overcast
12:15 PM 43.5 °F 39.4 °F 35.6 °F 74% 30.07 in 10.0 mi NNE 6.9 mph - N/A   Overcast
12:35 PM 43.0 °F 38.8 °F 32.0 °F 65% 30.07 in 10.0 mi East 6.9 mph - N/A   Overcast
12:55 PM 44.1 °F 41.5 °F 29.8 °F 57% 30.06 in 10.0 mi East 4.6 mph - N/A   Overcast
1:15 PM 44.1 °F 40.8 °F 30.2 °F 58% 30.08 in 10.0 mi NNE 5.8 mph - N/A   Overcast
1:35 PM 44.1 °F 40.8 °F 30.4 °F 59% 30.08 in 10.0 mi East 5.8 mph - N/A   Overcast
1:55 PM 46.8 °F - 30.4 °F 53% 30.07 in 10.0 mi ENE 3.5 mph - N/A   Overcast
2:15 PM 49.3 °F - 30.4 °F 48% 30.07 in 10.0 mi NE 6.9 mph - N/A   Mostly Cloudy
2:35 PM 49.3 °F - 30.4 °F 48% 30.06 in 10.0 mi ENE 4.6 mph - N/A   Mostly Cloudy
2:55 PM 49.3 °F - 30.9 °F 49% 30.04 in 10.0 mi SE 4.6 mph - N/A   Scattered Clouds
3:15 PM 46.8 °F - 28.2 °F 49% 30.05 in 10.0 mi ESE 8.1 mph - N/A   Scattered Clouds
3:35 PM 51.8 °F - 30.2 °F 44% 30.05 in 10.0 mi ENE 6.9 mph - N/A   Scattered Clouds
3:55 PM 49.3 °F - 30.4 °F 48% 30.05 in 10.0 mi East 3.5 mph - N/A   Clear
4:15 PM 51.3 °F - 31.1 °F 46% 30.06 in 10.0 mi ENE 8.1 mph - N/A   Clear
4:35 PM 51.8 °F - 28.4 °F 41% 30.06 in 10.0 mi ESE 5.8 mph - N/A   Clear
4:55 PM 51.8 °F - 28.4 °F 41% 30.05 in 10.0 mi ESE 10.4 mph - N/A   Clear
5:15 PM 51.8 °F - 27.3 °F 39% 30.05 in 10.0 mi SE 9.2 mph - N/A   Clear
5:35 PM 51.8 °F - 28.0 °F 40% 30.06 in 10.0 mi East 5.8 mph - N/A   Clear
5:55 PM 49.3 °F - 26.6 °F 41% 30.05 in 10.0 mi ESE 6.9 mph - N/A   Clear
6:15 PM 49.3 °F - 27.3 °F 43% 30.04 in 10.0 mi East 5.8 mph - N/A   Clear
6:35 PM 46.9 °F - 25.9 °F 44% 30.05 in 10.0 mi East 5.8 mph - N/A   Clear
6:55 PM 45.5 °F 43.2 °F 25.3 °F 45% 30.05 in 10.0 mi East 4.6 mph - N/A   Clear
7:15 PM 44.1 °F 40.1 °F 25.2 °F 47% 30.05 in 10.0 mi ENE 6.9 mph - N/A   Clear
7:35 PM 42.8 °F 39.3 °F 25.3 °F 50% 30.05 in 10.0 mi ENE 5.8 mph - N/A   Clear
7:55 PM 41.5 °F 37.1 °F 25.0 °F 52% 30.04 in 10.0 mi ENE 6.9 mph - N/A   Clear
8:15 PM 41.5 °F 37.1 °F 25.7 °F 53% 30.05 in 10.0 mi ENE 6.9 mph - N/A   Clear
8:35 PM 39.2 °F 34.2 °F 23.9 °F 54% 30.06 in 10.0 mi ENE 6.9 mph - N/A   Clear
9:15 PM 39.2 °F 34.2 °F 23.9 °F 54% 30.07 in 10.0 mi ENE 6.9 mph - N/A   Clear
9:35 PM 38.1 °F 33.7 °F 23.2 °F 55% 30.08 in 10.0 mi East 5.8 mph - N/A   Clear
9:55 PM 36.5 °F 31.8 °F 22.1 °F 56% 30.10 in 10.0 mi East 5.8 mph - N/A   Clear
10:15 PM 36.5 °F 31.8 °F 22.8 °F 58% 30.10 in 10.0 mi East 5.8 mph - N/A   Clear
10:35 PM 36.5 °F 31.8 °F 23.0 °F 58% 30.10 in 10.0 mi East 5.8 mph - N/A   Clear
10:55 PM 36.5 °F 32.7 °F 23.0 °F 58% 30.12 in 10.0 mi East 4.6 mph - N/A   Clear
11:15 PM 36.5 °F 33.9 °F 23.0 °F 58% 30.12 in 10.0 mi ESE 3.5 mph - N/A   Clear
11:35 PM 36.5 °F 32.7 °F 23.0 °F 58% 30.13 in 10.0 mi ESE 4.6 mph - N/A   Clear
11:55 PM 36.5 °F 31.0 °F 23.4 °F 59% 30.13 in 10.0 mi ESE 6.9 mph - N/A   Clear